Tracking 28915 objects as of 30-May-2024
HD Live streaming from Space Station
objects crossing your sky now

OBJECT U

Track OBJECT U now!
10-day predictions
OBJECT U is classified as:


NORAD ID: 59071
Int'l Code: 2024-039U
Perigee: 506.3 km
Apogee: 749.4 km
Inclination: 95.4 °
Period: 97.1 minutes
Semi major axis: 6998 km
RCS: Unknown
Launch date: February 29, 2024
Source: (TBD)
Launch site: VOSTOCHNY COSMODROME (VOSTO)

Uplink (MHz):
Downlink (MHz): 401.350
Beacon (MHz):
Mode: 2k4 GMSK_USP
Call sign:
Status: Unknown


Note: This is a ROCKET BODY
Your satellite tracking list
Your tracking list is empty




NASA's NSSDC Master Catalog

Two Line Element Set (TLE):
1 59071U 24039U   24151.18124847  .00007124  00000-0  67935-3 0  9995
2 59071  95.4029  85.1857 0173692  45.4437 316.0815 14.82724135 13445
Source of the keplerian elements: AFSPC